Home   Weather   Sligo   Past weeks
Flag for Ireland

Past Weather in Sligo, Ireland — Yesterday and Last 2 Weeks

Now
55 °F

Cool.


Feels Like: 53 °F
Forecast: 53 / 50 °F
Wind: 7 mph from South

Location: Finner

Current Time: Mar 21, 2019 at 2:21:18 pm

Latest Report: Mar 21, 2019 at 1:00 pm


Visibility: 8 mi

Pressure: 30.39 "Hg

Humidity: 80%

Dew Point: 49 °F

Location of SligoLocation

Past Weather in Sligo — Graph

°F

Sligo Temperature Yesterday

Maximum temperature yesterday: 60 °F (at 2:00 pm)
Minimum temperature yesterday: 49 °F (at 4:00 am)
Average temperature yesterday: 53 °F

High & Low Weather Summary for the Past Weeks

 TemperatureHumidityPressure
High60 °F (Mar 20, 2:00 pm)97% (Mar 18, 8:00 pm)30.40 "Hg (Mar 18, 8:00 pm)
Low36 °F (Mar 9, 3:00 am)56% (Mar 8, 10:00 pm)28.94 "Hg (Mar 6, 1:00 pm)
Average46 °F81%29.75 "Hg
* Reported Mar 6 1:00 pm — Mar 21 1:00 pm, Sligo. Weather by CustomWeather, © 2019

Note: Actual official high and low records may vary slightly from our data, if they occured in-between our weather recording intervals... More about our weather records

Advertising

Sligo Weather History for the Previous 24 Hours

Scroll right to see more
 ConditionsComfort  
Time TempWeatherWind HumidityBarometerVisibility
1:00 pm
Thu, Mar 21
55 °FCool.7 mph80%30.39 "Hg8 mi
12:00 pm55 °FCool.6 mph83%30.40 "Hg11 mi
11:00 am55 °FCool.6 mph86%30.40 "Hg8 mi
10:00 am53 °FCool.6 mph91%30.40 "Hg4 mi
9:00 am52 °FCool.3 mph94%30.40 "Hg2 mi
8:00 am53 °FCool.7 mph85%30.38 "Hg6 mi
7:00 am53 °FCool.7 mph85%30.37 "Hg9 mi
6:00 am53 °FCool.7 mph85%30.36 "Hg9 mi
5:00 am53 °FCool.7 mph84%30.34 "Hg7 mi
4:00 am53 °FCool.9 mph83%30.33 "Hg10 mi
3:00 am53 °FCool.8 mph83%30.33 "Hg10 mi
2:00 am52 °FCool.8 mph85%30.33 "Hg8 mi
1:00 am52 °FCool.8 mph85%30.34 "Hg6 mi
12:00 am53 °FCool.7 mph83%30.33 "Hg5 mi
11:00 pm
Wed, Mar 20
52 °FCool.7 mph85%30.33 "Hg8 mi
10:00 pm53 °FCool.7 mph83%30.32 "Hg11 mi
9:00 pm53 °FCool.8 mph81%30.32 "Hg8 mi
8:00 pm53 °FCool.8 mph78%30.30 "Hg8 mi
7:00 pm54 °FCool.9 mph76%30.30 "Hg5 mi
6:00 pm55 °FCool.10 mph77%30.29 "Hg7 mi
5:00 pm55 °FCool.12 mph84%30.29 "Hg7 mi
4:00 pm55 °FCool.10 mph88%30.29 "Hg7 mi
3:00 pm60 °FCool.8 mph75%30.27 "Hg11 mi
2:00 pm60 °FCool.7 mph73%30.29 "Hg8 mi
Weather by CustomWeather, © 2019

See weather overview